SCP
0 0 0 0 0 0 0 0 0 0 0 0 -0 0 -0 0 0 0 -0 -0 0 0 0 0 0 0 0 0 0 0 0 0 0 0 0 0 0 0 0 0 0 0 0 0 0 0 0 0 0
0 0 0 0 0 0 0 0 0 0 0 0 0 0 0 0 0 0 0 -0 0 0 0 0 0 0 0 0 0 0 0 0 0 0 0 0 0 0 0 0 0 0 0 0 0 0 0 0 0
0 0 0 0 0 0 0 0 0 -0 0 0 0 0 0 0 0 0 -0 0 0 0 0 0 0 1 1 0 0 0 0 0 0 0 0 0 0 0 0 0 0 0 0 0 0 0 0 0 0
0 0 0 0 0 -0 -0 0 0 0 0 0 0 -0 0 0 0 0 0 0 0 0 0 0 1 1 1 1 0 0 0 0 0 0 0 0 0 0 0 0 0 0 0 0 0 0 0 0 0
0 0 0 0 0 -0 -0 -0 0 -0 -0 -0 0 0 0 0 0 0 0 0 0 0 0 0 0 1 1 1 1 0 0 0 0 0 0 0 0 0 0 0 0 0 0 0 0 0 0 0 0
0 0 0 0 -0 -0 -0 -0 0 0 0 -0 0 0 0 0 0 0 0 0 0 0 0 0 1 1 1 1 1 1 1 1 0 0 0 0 0 0 0 0 0 0 0 0 0 0 0 0 0
0 0 0 0 0 -0 -0 -0 0 0 -0 0 0 0 0 -0 0 0 0 0 0 0 0 0 0 1 1 1 1 1 1 1 1 0 0 0 0 0 0 0 0 0 0 0 0 0 0 0 0
0 0 0 0 0 -0 0 -0 0 -0 0 0 0 0 0 -0 0 0 0 0 0 0 0 0 0 0 1 1 2 2 1 1 1 1 0 0 0 0 0 0 0 0 0 0 0 0 0 0 0
0 0 0 0 0 0 0 0 0 0 0 0 0 0 0 -0 0 0 0 0 0 0 0 1 0 0 0 1 1 2 2 1 1 1 1 0 1 0 0 0 0 0 1 0 0 0 0 0 0
0 0 0 0 0 0 0 0 -0 -0 0 0 0 0 0 0 -0 0 0 0 0 0 1 1 1 0 0 0 1 2 2 1 1 1 1 1 1 0 0 0 0 0 1 1 1 0 0 0 0
0 0 0 0 0 0 0 0 0 0 -0 0 0 0 0 0 0 0 0 0 0 0 0 1 1 1 0 0 1 2 2 1 1 1 1 1 1 0 0 0 0 1 1 1 1 1 1 0 0
0 0 0 0 0 0 0 0 0 0 0 0 0 0 0 0 0 0 0 0 0 0 0 1 1 0 0 0 1 1 1 1 1 1 1 1 1 0 0 0 0 1 1 1 1 0 0 0 0
0 0 0 0 0 0 0 0 0 0 0 0 0 0 0 0 0 0 0 0 0 0 0 0 1 0 0 0 1 1 1 1 1 1 1 1 1 0 0 0 0 0 0 1 0 0 0 0 0
0 0 0 0 0 0 0 0 0 0 0 0 0 0 0 0 0 0 0 0 0 0 0 0 0 0 1 0 1 1 1 1 1 1 0 0 0 1 0 0 0 0 0 0 0 0 0 0 0
0 0 0 0 0 0 0 0 0 0 0 0 0 0 0 0 0 0 0 0 0 0 0 0 0 0 0 1 0 1 1 1 1 0 0 0 0 0 0 0 0 0 0 0 0 0 0 0 0
0 0 0 0 0 0 0 -0 0 0 0 0 0 0 -0 0 0 0 0 0 0 0 0 0 0 0 1 1 0 1 1 1 1 1 0 1 0 1 1 1 0 0 0 0 0 0 0 0 0
0 0 0 0 0 0 0 0 0 0 0 0 0 0 0 0 0 0 0 0 0 0 0 0 0 1 0 0 1 1 1 1 0 0 1 1 1 1 1 0 0 0 0 0 0 0 0 0 0
0 0 0 0 0 0 0 0 0 0 0 0 0 0 0 -0 0 0 0 0 0 0 0 0 1 1 1 2 2 1 1 0 0 0 1 1 1 1 0 0 0 0 0 0 0 0 0 0 0
0 0 0 0 0 0 0 0 0 0 0 0 0 0 0 0 0 0 0 0 0 0 0 0 1 1 3 2 2 1 1 0 0 0 0 1 0 0 0 0 0 0 0 0 0 0 0 0 0
0 0 0 0 0 0 0 0 0 0 0 0 0 0 0 0 0 0 0 0 0 0 1 1 2 2 3 2 1 1 0 0 0 0 0 0 0 0 0 0 0 0 0 0 0 0 0 0 0
0 0 0 0 0 0 0 0 0 -0 0 -0 -0 0 0 0 0 -0 0 0 0 1 1 1 1 2 1 1 1 0 0 0 0 0 0 0 0 0 0 0 0 0 0 0 0 0 0 0 0
0 0 0 0 0 0 0 0 0 -0 -0 -0 0 -0 0 0 0 0 0 0 0 0 1 1 1 1 1 1 1 0 0 0 0 0 0 0 0 0 0 0 0 0 0 0 0 0 0 0 0
0 0 0 0 0 0 0 0 -0 0 0 0 -0 -0 -0 -0 0 0 0 0 0 0 1 1 1 1 0 0 0 0 0 0 0 0 0 0 0 0 0 0 0 0 0 0 0 0 0 0 0
0 0 0 0 0 0 0 0 0 -0 -0 0 0 0 0 -0 -0 0 0 0 0 0 1 1 0 0 0 0 0 0 0 0 0 0 0 0 0 0 0 0 0 0 0 0 0 0 -0 0 0
0 0 0 0 0 0 0 0 -0 0 0 0 0 0 0 0 0 0 0 0 0 0 0 0 0 0 0 0 0 0 0 0 0 0 0 0 0 0 0 0 0 0 0 0 0 -0 0 -0 -0
0 0 0 0 0 0 0 0 -0 -0 0 -0 0 0 0 0 0 0 0 0 0 0 0 0 0 0 0 0 0 0 0 0 0 0 0 0 0 0 0 0 0 0 0 0 0 -0 -0 -0 0
0 0 0 0 0 0 0 0 -0 0 0 0 -0 0 0 0 0 0 0 0 0 0 0 0 0 0 0 0 0 0 0 0 0 0 0 0 0 0 0 0 0 0 0 -0 0 0 0 -0 -0
0 0 0 0 0 0 0 0 0 0 0 0 0 0 0 0 -0 0 0 0 0 0 0 0 0 0 0 0 0 0 0 0 0 0 0 0 0 0 0 0 -0 -0 0 -0 0 0 -0 0 -0
0 0 0 0 0 0 0 -0 0 0 -0 0 0 0 -0 -0 -0 -0 -0 -0 0 0 0 0 0 0 0 0 0 0 0 0 0 0 0 0 0 0 0 0 -0 0 -0 -0 0 0 0 -0 -0
0 0 0 0 0 0 0 -0 0 0 -0 0 -0 0 0 -0 -0 -0 -0 -0 0 0 0 0 0 0 0 0 0 0 0 0 0 0 0 0 0 0 0 -0 0 0 -0 0 0 0 0 -0 0
Wind_Speed_500mb
7 8 13 8 4 6 7 11 8 17 7 6 22 26 15 5 9 8 44 39 43 31 37 35 33 32 29 29 28 25 21 19 16 13 11 9 8 8 6 4 1 2 5 8 12 13 12 14 17
10 14 10 2 5 3 8 8 11 6 15 32 33 21 11 3 31 31 47 41 30 29 34 35 35 33 31 32 30 29 27 25 21 17 12 7 5 6 9 9 7 4 4 8 12 13 13 12 14
16 16 6 6 6 10 7 8 4 5 3 13 3 16 17 9 28 36 27 37 34 29 32 34 34 35 34 34 32 33 32 30 27 22 17 11 5 2 7 8 10 9 7 10 13 14 14 14 14
17 7 4 4 14 14 12 11 15 7 12 1 16 8 5 27 45 31 29 27 31 31 32 33 35 37 37 38 40 40 40 37 32 27 21 16 10 5 4 9 10 11 11 13 15 17 17 17 20
17 5 1 7 11 15 9 25 45 10 8 18 26 5 5 31 34 44 33 24 23 33 31 32 40 43 43 44 46 47 47 44 39 33 27 21 16 11 7 10 13 13 12 14 18 19 21 25 22
7 3 2 9 13 19 7 30 19 10 15 18 16 5 10 29 25 26 27 22 18 19 24 33 38 48 49 48 50 52 51 49 45 39 34 29 23 19 13 14 17 14 12 15 19 19 21 23 26
5 5 8 8 11 22 5 20 11 28 31 7 16 13 21 36 23 20 13 14 30 37 33 34 40 49 54 53 54 56 56 53 49 46 42 36 31 26 20 17 19 20 14 12 17 18 20 23 26
12 6 7 7 8 20 8 24 22 31 16 7 17 9 11 34 28 21 16 21 35 43 50 48 49 51 55 58 59 61 60 59 55 52 49 44 38 34 29 23 22 22 18 15 15 17 22 26 28
28 3 10 11 10 15 19 30 59 43 32 14 9 5 19 17 18 33 29 43 49 50 54 65 64 61 62 60 63 66 66 64 61 60 58 52 49 41 34 28 25 23 21 16 17 17 20 25 28
16 13 16 15 14 12 37 24 66 23 37 34 15 25 32 50 22 42 32 40 42 49 58 60 60 64 65 67 67 70 74 74 73 71 68 63 57 47 38 31 27 25 20 20 22 23 22 20 15
19 22 27 37 40 38 42 42 50 37 26 37 16 42 32 41 33 33 47 40 33 35 29 36 47 65 72 71 72 75 79 80 80 79 75 70 61 53 47 37 31 31 21 27 25 25 24 19 18
18 36 46 55 56 49 36 54 47 51 48 54 57 54 52 36 39 47 41 48 46 47 45 44 40 43 56 67 70 78 81 80 82 84 80 75 68 59 52 40 38 35 28 33 30 29 26 22 20
38 19 41 48 54 57 61 51 48 64 79 69 66 66 61 53 64 64 61 56 52 50 49 52 44 35 40 55 64 77 80 80 74 78 79 77 71 65 51 43 40 35 33 37 34 32 30 31 27
10 22 47 49 53 56 42 50 58 67 74 72 72 75 76 76 72 67 68 61 58 62 61 52 45 38 38 45 53 60 70 76 74 66 63 66 62 62 50 41 37 40 41 36 35 35 35 37 36
37 25 31 42 28 18 34 42 50 72 65 66 67 53 62 76 77 70 63 59 56 58 60 52 37 40 44 51 47 53 62 75 79 62 53 52 47 40 37 35 35 41 38 37 36 39 40 41 43
7 10 34 31 32 24 17 64 32 27 37 53 65 76 88 88 90 95 84 77 65 54 46 43 40 43 45 49 48 50 58 73 73 59 51 48 41 39 36 35 36 34 42 41 41 45 46 44 45
11 33 39 39 15 8 28 74 28 52 57 58 62 78 82 78 84 88 89 83 64 49 49 52 44 39 42 45 48 50 60 70 60 51 44 46 43 40 33 39 31 33 42 49 49 46 45 43 43
23 40 37 37 13 29 37 64 42 65 70 68 80 86 87 92 91 89 87 84 53 53 59 51 40 42 40 45 50 56 62 59 53 47 47 45 38 33 36 31 33 34 35 39 46 46 44 41 37
14 35 16 11 21 28 37 46 35 41 35 41 60 64 79 84 85 87 61 66 55 48 56 47 42 41 46 51 62 64 58 49 46 41 43 43 41 35 29 31 33 34 37 40 42 40 40 39 33
26 30 28 17 19 17 26 44 46 45 38 59 65 66 75 78 83 87 68 63 55 47 40 43 43 44 48 54 60 68 63 48 42 41 39 36 25 26 31 32 33 33 42 44 42 40 35 33 31
32 36 27 20 20 43 26 24 34 40 35 56 60 71 70 58 63 70 73 63 59 48 44 44 49 45 42 46 48 47 49 43 43 41 37 33 32 32 34 35 33 37 39 39 31 31 31 31 30
38 18 25 29 22 31 15 34 43 43 50 41 43 61 67 70 81 79 76 68 56 49 44 44 40 37 39 42 39 39 39 45 39 30 31 32 35 38 37 40 35 34 34 34 28 28 24 26 27
40 21 25 27 19 32 33 13 58 14 35 25 28 47 68 79 74 68 65 62 54 46 47 40 34 35 36 34 30 35 37 32 27 34 26 26 31 33 31 34 36 29 29 23 18 19 20 23 27
10 18 24 31 5 21 19 21 55 32 45 35 14 57 64 65 70 58 37 40 49 48 43 35 35 41 38 36 40 36 39 37 28 30 29 26 27 28 31 31 23 22 16 13 14 16 20 21 25
9 4 4 6 14 31 23 17 47 13 11 19 29 50 70 71 61 44 40 51 57 53 44 38 44 48 44 44 40 37 39 32 29 28 25 23 24 30 26 24 17 13 10 12 15 18 20 21 22
13 18 10 14 7 17 14 24 33 32 51 63 71 70 73 75 50 41 46 63 62 54 46 47 52 51 48 46 41 34 36 29 26 23 21 22 25 21 18 14 12 10 8 9 11 14 17 15 15
9 18 14 10 28 3 13 18 36 46 48 41 43 49 64 52 43 55 65 66 61 52 47 49 59 55 49 44 36 31 29 24 21 18 14 17 15 14 14 12 10 12 11 12 11 12 11 13 17
15 5 9 7 13 16 12 13 20 14 28 20 25 34 34 37 54 66 68 63 55 48 47 57 53 53 47 40 29 22 21 19 13 10 10 13 14 15 14 13 15 18 17 14 10 8 8 10 16
2 9 9 8 6 16 11 18 16 24 20 24 34 34 54 69 71 73 67 59 51 49 56 53 48 48 43 30 24 26 21 13 7 9 11 16 17 11 11 13 19 15 11 11 7 8 7 8 13
12 17 10 9 23 10 22 32 19 17 19 16 20 32 63 78 77 75 69 63 58 59 57 51 49 44 33 26 30 24 16 14 12 7 13 22 20 15 14 18 15 11 11 9 10 11 11 11 12
Wind_Direction_500mb
253 234 172 181 67 80 248 251 276 289 276 191 352 17 137 93 153 191 154 154 163 158 172 181 183 183 184 181 176 171 165 163 162 155 140 115 95 86 90 90 101 265 273 277 277 274 267 262 258
205 178 176 166 120 189 258 242 228 226 319 24 329 349 9 49 125 144 158 165 160 172 179 185 186 189 190 188 183 178 178 180 182 176 164 141 94 41 27 15 4 348 280 270 275 282 286 274 265
178 166 164 143 198 207 207 199 297 210 352 345 27 233 142 194 160 133 145 161 175 188 188 189 192 193 196 195 193 191 191 192 193 190 186 183 175 48 19 352 336 324 285 266 263 272 274 280 279
162 196 256 173 232 267 229 310 297 351 346 324 236 271 118 164 149 153 153 163 181 196 193 200 201 201 202 204 202 201 201 202 201 202 203 210 215 229 328 333 323 312 287 273 268 272 276 271 279
169 164 231 254 244 252 350 280 286 242 159 227 218 89 42 171 168 169 168 170 187 203 200 210 213 213 210 210 209 208 208 208 207 211 216 223 230 238 266 302 317 314 299 275 266 268 261 266 260
208 219 111 239 252 269 231 285 242 284 260 277 241 136 187 158 174 168 179 189 215 224 230 227 224 223 216 214 215 216 216 216 213 216 219 226 233 241 257 286 304 309 300 287 274 278 276 271 264
159 85 227 259 283 298 219 294 269 245 229 359 144 130 170 176 196 193 184 245 229 223 237 235 235 224 224 223 224 223 222 222 221 223 224 226 231 240 250 272 292 297 286 290 276 282 282 277 272
191 112 265 253 238 277 340 342 319 350 292 52 147 141 188 199 199 203 234 242 233 225 229 234 239 237 232 227 231 230 228 227 226 229 231 232 233 238 245 257 274 277 279 280 289 293 293 281 273
196 156 236 232 210 252 53 307 292 337 302 177 159 275 174 168 239 213 227 223 222 230 238 235 231 236 241 236 234 233 233 231 231 233 233 234 236 239 244 255 271 262 278 279 285 294 305 292 274
179 201 230 214 237 300 312 314 302 331 316 303 10 326 274 304 317 218 229 234 230 242 240 241 238 240 244 245 241 238 234 232 232 234 234 236 239 242 248 253 260 260 279 276 278 288 296 285 286
201 215 226 261 260 268 283 287 271 289 284 286 295 313 308 308 275 270 266 251 257 266 265 252 242 236 240 245 246 243 236 235 236 239 237 239 241 241 247 251 251 258 266 273 276 277 286 279 272
256 218 222 251 259 264 262 271 280 269 265 279 288 296 299 278 281 290 260 261 270 269 273 279 275 241 239 244 249 249 243 242 239 241 241 239 240 242 245 249 253 257 265 268 268 263 273 262 272
247 244 225 240 257 256 263 264 263 277 284 284 287 288 288 283 295 288 282 277 268 271 260 272 257 262 259 248 254 248 248 244 244 243 244 242 244 246 244 248 250 257 266 264 259 256 275 266 261
243 261 257 248 247 255 258 265 266 270 275 286 289 286 286 284 286 291 284 279 274 284 257 253 248 267 274 277 270 263 255 246 245 242 243 243 246 247 242 242 252 256 255 254 257 261 281 279 258
263 277 281 258 245 251 279 276 254 260 273 275 277 283 289 289 289 281 282 284 287 291 259 237 254 279 284 276 275 267 256 246 245 241 235 234 238 227 223 237 248 255 256 260 261 260 272 267 268
280 249 247 247 243 248 229 258 256 259 266 272 282 286 286 283 279 278 279 276 281 277 234 252 263 272 275 270 270 259 252 246 243 242 234 229 228 221 227 240 249 261 255 256 251 258 262 262 263
225 244 242 249 232 228 204 258 255 255 256 266 273 273 275 282 280 280 281 278 272 249 245 255 257 264 275 265 258 252 248 239 240 237 228 225 224 213 228 235 258 266 254 252 258 263 263 265 267
222 225 235 245 222 234 242 264 265 270 268 268 269 269 270 271 271 280 284 274 250 250 255 250 262 264 263 250 246 237 232 231 228 224 222 216 209 222 240 243 262 272 255 258 260 268 272 272 265
257 242 269 209 209 233 244 264 267 253 251 263 268 267 262 265 272 274 277 255 247 256 244 252 267 256 254 237 224 221 211 202 204 203 208 218 224 231 241 256 271 276 278 276 272 271 268 261 248
252 266 268 293 284 256 246 253 264 264 262 254 259 260 259 265 276 280 260 238 242 252 249 252 255 250 243 234 221 219 213 208 215 218 229 244 229 242 257 265 274 275 280 276 270 268 260 247 236
233 237 253 260 305 290 296 282 284 276 260 264 272 273 275 274 278 284 275 244 241 244 249 248 237 231 233 221 209 205 212 219 227 227 228 227 243 250 255 259 270 277 274 271 268 257 248 244 234
248 247 244 251 259 260 212 277 265 268 265 265 248 256 264 275 275 275 276 237 234 237 231 226 225 224 211 204 202 201 209 202 199 204 213 222 239 246 250 261 269 275 267 266 263 250 237 228 222
253 253 236 237 235 248 250 293 267 260 261 250 253 262 268 265 272 274 263 245 230 220 215 212 213 203 193 190 193 185 180 188 207 214 210 218 227 241 255 273 279 265 265 258 245 232 220 221 220
318 242 240 258 226 251 213 202 272 246 251 251 224 247 253 272 280 271 247 222 205 202 203 200 189 185 178 178 176 176 189 191 193 197 206 213 236 262 273 278 269 261 247 246 232 230 231 237 235
221 58 248 253 212 236 170 208 235 256 272 230 237 249 256 260 265 256 232 196 193 194 190 181 181 174 169 169 171 178 186 195 193 196 210 235 259 273 268 263 245 233 236 236 234 230 240 239 238
188 180 194 192 205 241 261 230 244 231 260 268 267 256 268 265 263 235 204 189 187 183 179 178 176 171 165 171 179 184 196 191 188 201 229 254 261 254 247 219 205 210 207 214 227 222 221 211 195
305 220 201 292 273 275 228 274 279 276 277 274 267 263 257 264 228 196 183 182 178 175 175 175 168 167 170 176 180 183 195 204 202 211 240 264 246 232 195 187 187 173 145 141 138 153 177 191 201
198 246 188 197 207 240 252 251 236 232 248 273 268 256 219 186 179 177 178 176 171 170 166 165 168 169 175 181 186 185 183 173 184 222 271 241 205 166 164 171 170 159 150 138 140 164 185 201 212
240 217 193 160 210 221 257 251 196 253 244 274 283 251 175 168 174 174 172 169 166 165 162 164 166 168 170 169 156 137 151 165 223 249 256 198 179 166 165 172 170 165 152 150 166 189 180 164 164
269 282 175 214 234 248 241 247 304 252 288 293 294 174 164 170 169 169 169 165 164 160 160 162 161 163 158 150 156 158 169 197 223 257 187 177 152 136 144 152 151 166 181 194 181 184 181 177 185
Wind_Speed_850mb
7 8 13 8 4 6 7 11 8 17 7 6 22 26 15 5 9 8 44 39 43 31 37 35 33 32 29 29 28 25 21 19 16 13 11 9 8 8 6 4 1 2 5 8 12 13 12 14 17
10 14 10 2 5 3 8 8 11 6 15 32 33 21 11 3 31 31 47 41 30 29 34 35 35 33 31 32 30 29 27 25 21 17 12 7 5 6 9 9 7 4 4 8 12 13 13 12 14
16 16 6 6 6 10 7 8 4 5 3 13 3 16 17 9 28 36 27 37 34 29 32 34 34 35 34 34 32 33 32 30 27 22 17 11 5 2 7 8 10 9 7 10 13 14 14 14 14
17 7 4 4 14 14 12 11 15 7 12 1 16 8 5 27 45 31 29 27 31 31 32 33 35 37 37 38 40 40 40 37 32 27 21 16 10 5 4 9 10 11 11 13 15 17 17 17 20
17 5 1 7 11 15 9 25 45 10 8 18 26 5 5 31 34 44 33 24 23 33 31 32 40 43 43 44 46 47 47 44 39 33 27 21 16 11 7 10 13 13 12 14 18 19 21 25 22
7 3 2 9 13 19 7 30 19 10 15 18 16 5 10 29 25 26 27 22 18 19 24 33 38 48 49 48 50 52 51 49 45 39 34 29 23 19 13 14 17 14 12 15 19 19 21 23 26
5 5 8 8 11 22 5 20 11 28 31 7 16 13 21 36 23 20 13 14 30 37 33 34 40 49 54 53 54 56 56 53 49 46 42 36 31 26 20 17 19 20 14 12 17 18 20 23 26
12 6 7 7 8 20 8 24 22 31 16 7 17 9 11 34 28 21 16 21 35 43 50 48 49 51 55 58 59 61 60 59 55 52 49 44 38 34 29 23 22 22 18 15 15 17 22 26 28
28 3 10 11 10 15 19 30 59 43 32 14 9 5 19 17 18 33 29 43 49 50 54 65 64 61 62 60 63 66 66 64 61 60 58 52 49 41 34 28 25 23 21 16 17 17 20 25 28
16 13 16 15 14 12 37 24 66 23 37 34 15 25 32 50 22 42 32 40 42 49 58 60 60 64 65 67 67 70 74 74 73 71 68 63 57 47 38 31 27 25 20 20 22 23 22 20 15
19 22 27 37 40 38 42 42 50 37 26 37 16 42 32 41 33 33 47 40 33 35 29 36 47 65 72 71 72 75 79 80 80 79 75 70 61 53 47 37 31 31 21 27 25 25 24 19 18
18 36 46 55 56 49 36 54 47 51 48 54 57 54 52 36 39 47 41 48 46 47 45 44 40 43 56 67 70 78 81 80 82 84 80 75 68 59 52 40 38 35 28 33 30 29 26 22 20
38 19 41 48 54 57 61 51 48 64 79 69 66 66 61 53 64 64 61 56 52 50 49 52 44 35 40 55 64 77 80 80 74 78 79 77 71 65 51 43 40 35 33 37 34 32 30 31 27
10 22 47 49 53 56 42 50 58 67 74 72 72 75 76 76 72 67 68 61 58 62 61 52 45 38 38 45 53 60 70 76 74 66 63 66 62 62 50 41 37 40 41 36 35 35 35 37 36
37 25 31 42 28 18 34 42 50 72 65 66 67 53 62 76 77 70 63 59 56 58 60 52 37 40 44 51 47 53 62 75 79 62 53 52 47 40 37 35 35 41 38 37 36 39 40 41 43
7 10 34 31 32 24 17 64 32 27 37 53 65 76 88 88 90 95 84 77 65 54 46 43 40 43 45 49 48 50 58 73 73 59 51 48 41 39 36 35 36 34 42 41 41 45 46 44 45
11 33 39 39 15 8 28 74 28 52 57 58 62 78 82 78 84 88 89 83 64 49 49 52 44 39 42 45 48 50 60 70 60 51 44 46 43 40 33 39 31 33 42 49 49 46 45 43 43
23 40 37 37 13 29 37 64 42 65 70 68 80 86 87 92 91 89 87 84 53 53 59 51 40 42 40 45 50 56 62 59 53 47 47 45 38 33 36 31 33 34 35 39 46 46 44 41 37
14 35 16 11 21 28 37 46 35 41 35 41 60 64 79 84 85 87 61 66 55 48 56 47 42 41 46 51 62 64 58 49 46 41 43 43 41 35 29 31 33 34 37 40 42 40 40 39 33
26 30 28 17 19 17 26 44 46 45 38 59 65 66 75 78 83 87 68 63 55 47 40 43 43 44 48 54 60 68 63 48 42 41 39 36 25 26 31 32 33 33 42 44 42 40 35 33 31
32 36 27 20 20 43 26 24 34 40 35 56 60 71 70 58 63 70 73 63 59 48 44 44 49 45 42 46 48 47 49 43 43 41 37 33 32 32 34 35 33 37 39 39 31 31 31 31 30
38 18 25 29 22 31 15 34 43 43 50 41 43 61 67 70 81 79 76 68 56 49 44 44 40 37 39 42 39 39 39 45 39 30 31 32 35 38 37 40 35 34 34 34 28 28 24 26 27
40 21 25 27 19 32 33 13 58 14 35 25 28 47 68 79 74 68 65 62 54 46 47 40 34 35 36 34 30 35 37 32 27 34 26 26 31 33 31 34 36 29 29 23 18 19 20 23 27
10 18 24 31 5 21 19 21 55 32 45 35 14 57 64 65 70 58 37 40 49 48 43 35 35 41 38 36 40 36 39 37 28 30 29 26 27 28 31 31 23 22 16 13 14 16 20 21 25
9 4 4 6 14 31 23 17 47 13 11 19 29 50 70 71 61 44 40 51 57 53 44 38 44 48 44 44 40 37 39 32 29 28 25 23 24 30 26 24 17 13 10 12 15 18 20 21 22
13 18 10 14 7 17 14 24 33 32 51 63 71 70 73 75 50 41 46 63 62 54 46 47 52 51 48 46 41 34 36 29 26 23 21 22 25 21 18 14 12 10 8 9 11 14 17 15 15
9 18 14 10 28 3 13 18 36 46 48 41 43 49 64 52 43 55 65 66 61 52 47 49 59 55 49 44 36 31 29 24 21 18 14 17 15 14 14 12 10 12 11 12 11 12 11 13 17
15 5 9 7 13 16 12 13 20 14 28 20 25 34 34 37 54 66 68 63 55 48 47 57 53 53 47 40 29 22 21 19 13 10 10 13 14 15 14 13 15 18 17 14 10 8 8 10 16
2 9 9 8 6 16 11 18 16 24 20 24 34 34 54 69 71 73 67 59 51 49 56 53 48 48 43 30 24 26 21 13 7 9 11 16 17 11 11 13 19 15 11 11 7 8 7 8 13
12 17 10 9 23 10 22 32 19 17 19 16 20 32 63 78 77 75 69 63 58 59 57 51 49 44 33 26 30 24 16 14 12 7 13 22 20 15 14 18 15 11 11 9 10 11 11 11 12
Wind_Direction_850mb
253 234 172 181 67 80 248 251 276 289 276 191 352 17 137 93 153 191 154 154 163 158 172 181 183 183 184 181 176 171 165 163 162 155 140 115 95 86 90 90 101 265 273 277 277 274 267 262 258
205 178 176 166 120 189 258 242 228 226 319 24 329 349 9 49 125 144 158 165 160 172 179 185 186 189 190 188 183 178 178 180 182 176 164 141 94 41 27 15 4 348 280 270 275 282 286 274 265
178 166 164 143 198 207 207 199 297 210 352 345 27 233 142 194 160 133 145 161 175 188 188 189 192 193 196 195 193 191 191 192 193 190 186 183 175 48 19 352 336 324 285 266 263 272 274 280 279
162 196 256 173 232 267 229 310 297 351 346 324 236 271 118 164 149 153 153 163 181 196 193 200 201 201 202 204 202 201 201 202 201 202 203 210 215 229 328 333 323 312 287 273 268 272 276 271 279
169 164 231 254 244 252 350 280 286 242 159 227 218 89 42 171 168 169 168 170 187 203 200 210 213 213 210 210 209 208 208 208 207 211 216 223 230 238 266 302 317 314 299 275 266 268 261 266 260
208 219 111 239 252 269 231 285 242 284 260 277 241 136 187 158 174 168 179 189 215 224 230 227 224 223 216 214 215 216 216 216 213 216 219 226 233 241 257 286 304 309 300 287 274 278 276 271 264
159 85 227 259 283 298 219 294 269 245 229 359 144 130 170 176 196 193 184 245 229 223 237 235 235 224 224 223 224 223 222 222 221 223 224 226 231 240 250 272 292 297 286 290 276 282 282 277 272
191 112 265 253 238 277 340 342 319 350 292 52 147 141 188 199 199 203 234 242 233 225 229 234 239 237 232 227 231 230 228 227 226 229 231 232 233 238 245 257 274 277 279 280 289 293 293 281 273
196 156 236 232 210 252 53 307 292 337 302 177 159 275 174 168 239 213 227 223 222 230 238 235 231 236 241 236 234 233 233 231 231 233 233 234 236 239 244 255 271 262 278 279 285 294 305 292 274
179 201 230 214 237 300 312 314 302 331 316 303 10 326 274 304 317 218 229 234 230 242 240 241 238 240 244 245 241 238 234 232 232 234 234 236 239 242 248 253 260 260 279 276 278 288 296 285 286
201 215 226 261 260 268 283 287 271 289 284 286 295 313 308 308 275 270 266 251 257 266 265 252 242 236 240 245 246 243 236 235 236 239 237 239 241 241 247 251 251 258 266 273 276 277 286 279 272
256 218 222 251 259 264 262 271 280 269 265 279 288 296 299 278 281 290 260 261 270 269 273 279 275 241 239 244 249 249 243 242 239 241 241 239 240 242 245 249 253 257 265 268 268 263 273 262 272
247 244 225 240 257 256 263 264 263 277 284 284 287 288 288 283 295 288 282 277 268 271 260 272 257 262 259 248 254 248 248 244 244 243 244 242 244 246 244 248 250 257 266 264 259 256 275 266 261
243 261 257 248 247 255 258 265 266 270 275 286 289 286 286 284 286 291 284 279 274 284 257 253 248 267 274 277 270 263 255 246 245 242 243 243 246 247 242 242 252 256 255 254 257 261 281 279 258
263 277 281 258 245 251 279 276 254 260 273 275 277 283 289 289 289 281 282 284 287 291 259 237 254 279 284 276 275 267 256 246 245 241 235 234 238 227 223 237 248 255 256 260 261 260 272 267 268
280 249 247 247 243 248 229 258 256 259 266 272 282 286 286 283 279 278 279 276 281 277 234 252 263 272 275 270 270 259 252 246 243 242 234 229 228 221 227 240 249 261 255 256 251 258 262 262 263
225 244 242 249 232 228 204 258 255 255 256 266 273 273 275 282 280 280 281 278 272 249 245 255 257 264 275 265 258 252 248 239 240 237 228 225 224 213 228 235 258 266 254 252 258 263 263 265 267
222 225 235 245 222 234 242 264 265 270 268 268 269 269 270 271 271 280 284 274 250 250 255 250 262 264 263 250 246 237 232 231 228 224 222 216 209 222 240 243 262 272 255 258 260 268 272 272 265
257 242 269 209 209 233 244 264 267 253 251 263 268 267 262 265 272 274 277 255 247 256 244 252 267 256 254 237 224 221 211 202 204 203 208 218 224 231 241 256 271 276 278 276 272 271 268 261 248
252 266 268 293 284 256 246 253 264 264 262 254 259 260 259 265 276 280 260 238 242 252 249 252 255 250 243 234 221 219 213 208 215 218 229 244 229 242 257 265 274 275 280 276 270 268 260 247 236
233 237 253 260 305 290 296 282 284 276 260 264 272 273 275 274 278 284 275 244 241 244 249 248 237 231 233 221 209 205 212 219 227 227 228 227 243 250 255 259 270 277 274 271 268 257 248 244 234
248 247 244 251 259 260 212 277 265 268 265 265 248 256 264 275 275 275 276 237 234 237 231 226 225 224 211 204 202 201 209 202 199 204 213 222 239 246 250 261 269 275 267 266 263 250 237 228 222
253 253 236 237 235 248 250 293 267 260 261 250 253 262 268 265 272 274 263 245 230 220 215 212 213 203 193 190 193 185 180 188 207 214 210 218 227 241 255 273 279 265 265 258 245 232 220 221 220
318 242 240 258 226 251 213 202 272 246 251 251 224 247 253 272 280 271 247 222 205 202 203 200 189 185 178 178 176 176 189 191 193 197 206 213 236 262 273 278 269 261 247 246 232 230 231 237 235
221 58 248 253 212 236 170 208 235 256 272 230 237 249 256 260 265 256 232 196 193 194 190 181 181 174 169 169 171 178 186 195 193 196 210 235 259 273 268 263 245 233 236 236 234 230 240 239 238
188 180 194 192 205 241 261 230 244 231 260 268 267 256 268 265 263 235 204 189 187 183 179 178 176 171 165 171 179 184 196 191 188 201 229 254 261 254 247 219 205 210 207 214 227 222 221 211 195
305 220 201 292 273 275 228 274 279 276 277 274 267 263 257 264 228 196 183 182 178 175 175 175 168 167 170 176 180 183 195 204 202 211 240 264 246 232 195 187 187 173 145 141 138 153 177 191 201
198 246 188 197 207 240 252 251 236 232 248 273 268 256 219 186 179 177 178 176 171 170 166 165 168 169 175 181 186 185 183 173 184 222 271 241 205 166 164 171 170 159 150 138 140 164 185 201 212
240 217 193 160 210 221 257 251 196 253 244 274 283 251 175 168 174 174 172 169 166 165 162 164 166 168 170 169 156 137 151 165 223 249 256 198 179 166 165 172 170 165 152 150 166 189 180 164 164
269 282 175 214 234 248 241 247 304 252 288 293 294 174 164 170 169 169 169 165 164 160 160 162 161 163 158 150 156 158 169 197 223 257 187 177 152 136 144 152 151 166 181 194 181 184 181 177 185